Location: Newport
(44.6370°N, 124.0520°W)
Time: 16:49:05
(UTC-07:00)

Vanguard 1 - Pass Details

Date: 20 July 2018
Orbit: 650 x 3833 km, 34.2° (Epoch: 20 October)

Event Time Altitude Azimuth Distance (km) Brightness Sun altitude
Exits shadow 03:23:22 14° 149° (SSE) 2,023 11.4 -19.2°
Drops below altitude 10° 03:24:23 10° 141° (SE) 2,338 11.8 -19.1°
Sets 03:27:50 0° 125° (SE) 3,588 12.9 -18.8°
